Regional Weather Roundup
Issued by NWS

Home | Current Version | Previous Version | Graphics & Text | Print | Product List | Glossary On
Versions: 1 2 3 4 5 6 7 8 9 10 11 12 13 14 15 16 17 18 19 20 21 22 23 24 25 26 27 28 29 30 31 32 33 34 35 36 37 38 39 40 41 42 43 44 45 46 47 48 49 50
000
ASUS45 KSLC 240410
RWRUT

UTAH REGIONAL WEATHER ROUNDUP
NATIONAL WEATHER SERVICE SALT LAKE CITY UT
1000 PM MDT WED JUL 23 2014

UTZ001>011-023>025-240500-

NORTHERN UTAH

CITY           SKY/WX    TMP DP  RH WIND       PRES   REMARKS
HILL AFB       PTCLDY    86  44  23 SE10      30.00F
LOGAN          NOT AVBL
OGDEN          PTCLDY    87  43  21 S10       29.95S
PROVO AIRPORT  CLEAR     88  45  22 SE16      30.04R
SALT LAKE CITY MOCLDY    91  43  18 S20       29.94R
VERNAL         MOCLDY    81  43  26 SW3       30.13R
WENDOVER       CLEAR     91  28  10 NW18G26   29.93R
HEBER CITY     CLEAR     72  46  40 SW3       30.15R
WEST JORDAN    CLEAR     90  54  29 S13       30.01R

$$

UTZ012>022-026-027-240500-

SOUTHERN UTAH

CITY           SKY/WX    TMP DP  RH WIND       PRES   REMARKS
BRYCE CANYON   MOCLDY    70  39  32 W7        30.36R
CEDAR CITY     MOCLDY    83  35  18 SW5       30.16R
MILFORD        PTCLDY    87  37  17 S9        30.07R
MOAB/CYNLANDS  CLEAR     89  37  16 NW9       30.06R
PRICE          TSTM      83  40  21 VRB6G17   30.24S
ST GEORGE      CLEAR    100  36  10 W6        29.93R HX  95

$$

REGIONAL REPORTS     COLORADO/ARIZONA

CITY           SKY/WX    TMP DP  RH WIND       PRES   REMARKS
CRAIG, CO      CLOUDY    76  44  32 S15       30.23R
GRAND JUNCTION PTCLDY    88  39  17 S9        30.10R
RIFLE          MOCLDY    79  45  29 E18       30.21R
MONTROSE       MOCLDY    79  46  31 SE7       30.24R
CORTEZ         CLEAR     83  49  30 S23G32    30.26R
PAGE, AZ       MOCLDY    95  42  16 SE20G28   30.06R HX  91
GRAND CANYON   CLOUDY    74  43  32 CALM      30.31R
KINGMAN        CLEAR     87  37  17 S8        30.01R
FLAGSTAFF      CLOUDY    74  48  39 S6        30.38R

$$

REGIONAL REPORTS    NEVADA/IDAHO/WYOMING

CITY           SKY/WX    TMP DP  RH WIND       PRES   REMARKS
LAS VEGAS, NV  PTCLDY   102  23   6 SW14      29.82R HX  95
ELY            CLEAR     80  17   9 S14G24    30.17R
ELKO           CLEAR     77  23  13 S5        30.08R
POCATELLO, ID  CLEAR     74  41  30 SE3       29.95S
BURLEY         PTCLDY    71  50  47 SW9       29.95R
EVANSTON, WY   LGT RAIN  68  52  56 N5        30.26R
ROCK SPRINGS   CLOUDY    78  30  17 SE9       30.23F

$$



USA.gov is the U.S. government's official web portal to all federal, state and local government web resources and services.